Miscellaneous Local Product
Issued by NWS North Platte, NE

Home | Current Version | Previous Version | Graphics & Text | Print | Product List | Glossary On
Versions: 1 2 3 4 5 6 7 8 9 10 11 12 13 14 15 16 17 18 19 20 21 22 23 24 25 26 27 28 29 30 31 32 33 34 35 36 37 38 39 40 41 42 43 44 45 46 47 48 49 50
000
AXUS43 KLBF 281910
MISLBF


WESTERN AND NORTH CENTRAL NEBRASKA HOURLY WEATHER ROUNDUP
NATIONAL WEATHER SERVICE NORTH PLATTE NE
200 PM CDT MON JUL 28 2014

***STATIONS NOT REPORTING VARIABLES SUCH AS SKY/WEATHER OR
PRESSURE ARE PROVIDED BY THE NEBRASKA DEPARTMENT OF
ROADS...RAWS...AND APRS NETWORKS...AND ARE NOT UNDER
NATIONAL WEATHER SERVICE QUALITY CONTROL***

...OBSERVATIONS IN AND NEAR THE EASTERN PANHANDLE OF NEBRASKA...

CITY           SKY/WX    TMP DP  RH WIND       PRES   REMARKS
PINE RIDGE     SUNNY     80  54  40 SE9       30.30F
CHADRON        SUNNY     83  54  36 CALM      30.27F
ALLIANCE       SUNNY     82  54  37 SE10G20   30.30F
SIDNEY         SUNNY     86  56  35 SE13G20   30.32F
WHITECLAY        N/A     81  53  37 E7          N/A
RUSHVILLE        N/A     84  51  31 S12         N/A
GORDON           N/A     84  55  36 E9          N/A
CRESCENT LAKE    N/A     81  58  44 SE6G13      N/A
LISCO            N/A     86  53  31 E12         N/A
BIG SPRINGS      N/A     79  61  53 S7          N/A
$$

...OBSERVATIONS IN NORTH CENTRAL NEBRASKA...

CITY           SKY/WX    TMP DP  RH WIND       PRES   REMARKS
VALENTINE      SUNNY     78  52  40 VRB5      30.30F
THEDFORD       CLOUDY    78  55  44 E3        30.32F
AINSWORTH      MOSUNNY   73  53  49 E3        30.31F
O`NEILL        MOSUNNY   74  49  41 W5        30.31F
ORD            SUNNY     75  54  47 NW6       30.29F
BROKEN BOW     MOSUNNY   77  55  46 CALM      30.30F
BROWNLEE         N/A     81  51  34 E6          N/A
SPRINGVIEW       N/A     77  56  47 NE3         N/A
DUNNING          N/A     75  55  49 CALM        N/A
ROSE             N/A     76  58  53 CALM        N/A
NEWPORT          N/A     75  54  47 E5          N/A
SARGENT          N/A     76  55  48 CALM        N/A
COMSTOCK         N/A     82  61  48 CALM        N/A
CHAMBERS         N/A     77  52  41 N3          N/A
EWING            N/A     72  55  55 NW3         N/A
$$

...OBSERVATIONS IN SOUTHWEST NEBRASKA AND FAR NORTHEAST COLORADO...

CITY           SKY/WX    TMP DP  RH WIND       PRES   REMARKS
WRAY             N/A     87  54  31 S10G17    30.28F
HOLYOKE        FAIR      86  57  37 SE14G30   30.28F
IMPERIAL       SUNNY     85  56  37 SE13G20   30.28F
OGALLALA       MOSUNNY   80  58  46 SE12      30.29F
NORTH PLATTE   SUNNY     81  56  42 E13       30.29F
MCCOOK         SUNNY     84  57  39 E12G17    30.28F
LEXINGTON      SUNNY     78  57  49 E5        30.30F
PAXTON           N/A     79  62  55 SE8         N/A
SUTHERLAND       N/A     82  61  49 E9          N/A
BRADY            N/A     79  56  44 NE3         N/A
CALLAWAY         N/A     79  62  55 CALM        N/A
$$

...SOME WEATHER OBSERVATIONS FROM AROUND THE REGION...

CITY           SKY/WX    TMP DP  RH WIND       PRES   REMARKS
DENVER         PTSUNNY   82  55  39 VRB5      30.32F
LARAMIE        MOSUNNY   78  52  40 E7        30.43F
CHEYENNE       SUNNY     80  51  36 S9G18     30.39F
SCOTTSBLUFF    SUNNY     82  59  45 E12G17    30.29F
RAPID CITY     SUNNY     77  57  50 SE13      30.30F
PIERRE         SUNNY     75  52  44 N7        30.28F
WINNER         FAIR      77  50  38 N7        30.30F
SIOUX FALLS    PTSUNNY   71  54  54 N9G16     30.26S
OMAHA          MOSUNNY   77  55  46 NW10      30.24F
GRAND ISLAND   MOSUNNY   75  56  51 N9        30.30F
KANSAS CITY    PTSUNNY   78  60  53 N8        30.22F
WICHITA        MOSUNNY   83  60  45 NW7G16    30.24F
HAYS           SUNNY     82  57  42 SE3       30.27F
LIBERAL        CLOUDY    75  55  50 S9        30.35F
GOODLAND       SUNNY    N/A N/A N/A MISG      30.31F
$$



USA.gov is the U.S. government's official web portal to all federal, state and local government web resources and services.